User: anonymous   Login
Location: Unspecified
(0.0000°N, 0.0000°E)
Time: 07:26:27
(UTC+02:00)
Language:

H-2A R/B - Orbit

View from above orbital plane
View from above orbital plane
View from above satellite
View from above satellite

Ground track
Ground track

The orbit data is extracted from the following two-line orbital elements,

1 26899U 01038B   16212.78071302  .00000379  00000-0  20791-3 0  9997
2 26899  28.0101 195.8262 7107496 335.1360   2.8782  2.47179099128552
Epoch (UTC): 30 July 2016 18:44:13
Eccentricity: 0.7107496
inclination: 28.0101°
perigee height: 305 km
apogee height: 33150 km
right ascension of ascending node: 195.8262°
argument of perigee: 335.1360°
revolutions per day: 2.47179099
mean anomaly at epoch: 2.8782°
orbit number at epoch: 12855

The dashed part of the orbit path shows where the satellite is in the earth's shadow,  

DLR